Terminal Aerodrome Forecast
Issued by NWS Sioux Falls, SD

Home | Current Version | Previous Version | Text Only | Print | Product List | Glossary On
Versions: 1 2 3 4 5 6 7 8 9 10 11 12 13 14 15 16 17 18 19 20 21 22 23 24 25 26 27
000
FTUS43 KFSD 031120
TAFSUX
TAF
KSUX 031120Z 0312/0412 VRB02KT 1/4SM FG VV002
     FM031330 VRB03KT P6SM FEW015
     FM031800 19004KT P6SM SKC
     FM040600 16003KT P6SM SCT030=

USA.gov is the U.S. government's official web portal to all federal, state and local government web resources and services.